Portada
METAR-TAF:

METAR-TAF

Aeroports :

Narrandera, Austràlia

latitud: 34-42-08S, longitud: 146-30-44E, altitud: 144 m

Observació

L'informe es va fer fa 53 minuts, a les 00:00 UTC
Vent 9 kt del Oest
Temperatura 22°C
Humitat 38%
Pressió 1014 hPa
Visibilitat 10 km o més

METAR: YNAR 220000Z AUTO 26009KT 9999 // NCD 22/07 Q1014

Hora: 11:53 (00:53 UTC)


TAF: manca

Observacions i pronòstics meteorològics de més de 4000 aeroports (METAR i TAF).

Les estacions disponibles són els punts grocs i vermells al mapa.

Posi el ratolí al punt desitjat per veure el nom de l'estació.

Feu clic per veure les observacions i els pronòstics meteorològics.

Per canviar el mapa: feu clic els botons verds amb una creu de color negre per apropar; al botó verd amb un guió per allunyar la imatge; o en les fletxes verdes per a mapes adjacents.


METAR-TAF: